• în România
  • Lista ţărilor
  • Pe 7 zile
  • Temperatura apei
  • Hartă satelitară
  • Meteo pe hartă
  • Widget-uri
  • user-avatar
    Intrare

    Meteo pe oră la Laszow

    Astăzi, 24 Octombrie, Miercuri

    Timp Temperatura Precipitaţii Vânt Presiune Umiditate
    00:00 +7°C° 0.9 mm 9 m/s 728 mmHg 80%
    01:00 +7°C° 0.9 mm 9 m/s 728 mmHg 80%
    02:00 +7°C° 0.5 mm 9 m/s 727 mmHg 79%
    03:00 +6°C° 0.5 mm 9 m/s 727 mmHg 78%
    04:00 +6°C° 0.5 mm 8 m/s 726 mmHg 77%
    05:00 +5°C° 0.2 mm 9 m/s 727 mmHg 74%
    06:00 +5°C° 0.2 mm 9 m/s 727 mmHg 72%
    07:00 +3°C° 0.2 mm 9 m/s 727 mmHg 70%
    08:00 +5°C° 0.2 mm 10 m/s 728 mmHg 64%
    09:00 +5°C° 0.2 mm 10 m/s 729 mmHg 58%
    10:00 +4°C° 0.2 mm 11 m/s 729 mmHg 52%
    11:00 +4°C° 0 mm 11 m/s 730 mmHg 49%
    12:00 +6°C° 0 mm 11 m/s 730 mmHg 45%
    13:00 +6°C° 0 mm 11 m/s 731 mmHg 42%
    14:00 +5°C° 0 mm 10 m/s 731 mmHg 43%
    15:00 +5°C° 0 mm 9 m/s 732 mmHg 44%
    16:00 +5°C° 0 mm 8 m/s 732 mmHg 46%
    17:00 +4°C° 0 mm 8 m/s 733 mmHg 49%
    18:00 +3°C° 0 mm 7 m/s 734 mmHg 52%
    19:00 +3°C° 0 mm 6 m/s 734 mmHg 55%
    20:00 +3°C° 0 mm 6 m/s 735 mmHg 56%
    21:00 +2°C° 0 mm 6 m/s 735 mmHg 58%
    22:00 +2°C° 0 mm 6 m/s 736 mmHg 60%
    23:00 +2°C° 0 mm 6 m/s 736 mmHg 61%

    Mâine, 25 Octombrie, Joi

    Timp Temperatura Precipitaţii Vânt Presiune Umiditate
    00:00 +2°C° 0 mm 6 m/s 737 mmHg 63%
    01:00 +2°C° 0 mm 6 m/s 737 mmHg 64%
    02:00 +1°C° 0 mm 6 m/s 737 mmHg 69%
    03:00 +1°C° 0 mm 5 m/s 737 mmHg 73%
    04:00 +1°C° 0 mm 5 m/s 737 mmHg 78%
    05:00 +1°C° 0 mm 5 m/s 737 mmHg 77%
    06:00 +2°C° 0 mm 5 m/s 736 mmHg 77%
    07:00 +2°C° 0 mm 5 m/s 736 mmHg 76%
    08:00 +2°C° 0.5 mm 5 m/s 736 mmHg 78%
    09:00 +3°C° 0.5 mm 6 m/s 735 mmHg 79%
    10:00 +4°C° 0.5 mm 6 m/s 734 mmHg 80%
    11:00 +5°C° 0.3 mm 7 m/s 734 mmHg 79%
    12:00 +7°C° 0.3 mm 8 m/s 733 mmHg 78%
    13:00 +10°C° 0.3 mm 9 m/s 732 mmHg 76%
    14:00 +10°C° 0.3 mm 9 m/s 732 mmHg 78%
    15:00 +10°C° 0.3 mm 8 m/s 732 mmHg 81%
    16:00 +9°C° 0.3 mm 8 m/s 732 mmHg 83%
    17:00 +9°C° 0.2 mm 8 m/s 732 mmHg 82%
    18:00 +9°C° 0.2 mm 8 m/s 733 mmHg 82%
    19:00 +9°C° 0.2 mm 8 m/s 733 mmHg 81%
    20:00 +8°C° 0.2 mm 7 m/s 734 mmHg 81%
    21:00 +8°C° 0.2 mm 6 m/s 734 mmHg 80%
    22:00 +7°C° 0.2 mm 6 m/s 734 mmHg 79%
    23:00 +7°C° 0 mm 5 m/s 734 mmHg 79%

    Poimâine, 26 Octombrie, Vineri

    Timp Temperatura Precipitaţii Vânt Presiune Umiditate
    00:00 +6°C° 0 mm 5 m/s 734 mmHg 80%
    01:00 +5°C° 0 mm 5 m/s 735 mmHg 81%
    02:00 +5°C° 0 mm 5 m/s 735 mmHg 81%
    03:00 +5°C° 0 mm 4 m/s 735 mmHg 82%
    04:00 +5°C° 0 mm 4 m/s 735 mmHg 83%
    05:00 +5°C° 0 mm 4 m/s 735 mmHg 84%
    06:00 +5°C° 0 mm 4 m/s 735 mmHg 84%
    07:00 +5°C° 0 mm 4 m/s 735 mmHg 85%
    08:00 +6°C° 0 mm 4 m/s 735 mmHg 80%
    09:00 +7°C° 0 mm 4 m/s 735 mmHg 75%
    10:00 +9°C° 0 mm 5 m/s 735 mmHg 70%
    11:00 +9°C° 0 mm 5 m/s 735 mmHg 69%
    12:00 +10°C° 0 mm 5 m/s 734 mmHg 68%
    13:00 +12°C° 0 mm 5 m/s 734 mmHg 67%
    14:00 +12°C° 0 mm 4 m/s 733 mmHg 69%
    15:00 +11°C° 0 mm 4 m/s 733 mmHg 70%
    16:00 +11°C° 0 mm 3 m/s 732 mmHg 72%
    17:00 +10°C° 0 mm 4 m/s 732 mmHg 75%
    18:00 +10°C° 0 mm 4 m/s 732 mmHg 77%
    19:00 +8°C° 0 mm 4 m/s 731 mmHg 80%
    20:00 +8°C° 0 mm 4 m/s 731 mmHg 80%
    21:00 +8°C° 0 mm 4 m/s 731 mmHg 81%
    22:00 +8°C° 0 mm 5 m/s 731 mmHg 82%
    23:00 +8°C° 0 mm 5 m/s 731 mmHg 81%

    27 Octombrie, Sâmbătă

    Timp Temperatura Precipitaţii Vânt Presiune Umiditate
    00:00 +8°C° 0 mm 5 m/s 731 mmHg 81%
    01:00 +7°C° 0 mm 5 m/s 731 mmHg 81%
    02:00 +7°C° 0 mm 5 m/s 732 mmHg 79%
    03:00 +7°C° 0 mm 5 m/s 732 mmHg 78%
    04:00 +7°C° 0 mm 6 m/s 732 mmHg 77%
    05:00 +6°C° 0 mm 5 m/s 732 mmHg 74%
    06:00 +6°C° 0 mm 5 m/s 733 mmHg 72%
    07:00 +6°C° 0 mm 5 m/s 733 mmHg 70%
    08:00 +6°C° 0 mm 5 m/s 733 mmHg 66%
    09:00 +7°C° 0 mm 5 m/s 734 mmHg 61%
    10:00 +7°C° 0 mm 5 m/s 734 mmHg 57%
    11:00 +7°C° 0 mm 5 m/s 734 mmHg 56%
    12:00 +8°C° 0 mm 4 m/s 735 mmHg 54%
    13:00 +8°C° 0 mm 4 m/s 735 mmHg 52%
    14:00 +8°C° 0 mm 3 m/s 735 mmHg 53%
    15:00 +8°C° 0 mm 3 m/s 735 mmHg 55%
    16:00 +8°C° 0 mm 2 m/s 735 mmHg 57%
    17:00 +7°C° 0 mm 2 m/s 736 mmHg 59%
    18:00 +7°C° 0 mm 2 m/s 736 mmHg 61%
    19:00 +8°C° 0 mm 1 m/s 737 mmHg 63%
    20:00 +7°C° 0 mm 1 m/s 737 mmHg 64%
    21:00 +7°C° 0 mm 1 m/s 737 mmHg 66%
    22:00 +7°C° 0 mm 1 m/s 737 mmHg 67%
    23:00 +7°C° 0.2 mm 1 m/s 737 mmHg 70%

    28 Octombrie, Duminică

    Timp Temperatura Precipitaţii Vânt Presiune Umiditate
    00:00 +7°C° 0.2 mm 1 m/s 738 mmHg 73%
    01:00 +6°C° 0.2 mm 1 m/s 738 mmHg 75%
    02:00 +5°C° 0.2 mm 2 m/s 738 mmHg 77%
    03:00 +5°C° 0.2 mm 2 m/s 738 mmHg 79%
    04:00 +5°C° 0.2 mm 2 m/s 738 mmHg 80%
    05:00 +4°C° 0.2 mm 3 m/s 738 mmHg 81%
    06:00 +4°C° 0.2 mm 3 m/s 738 mmHg 81%
    07:00 +4°C° 0.2 mm 3 m/s 738 mmHg 82%
    08:00 +4°C° 0.3 mm 4 m/s 738 mmHg 80%
    09:00 +3°C° 0.3 mm 5 m/s 738 mmHg 79%
    10:00 +5°C° 0.3 mm 5 m/s 738 mmHg 77%
    11:00 +4°C° 0.4 mm 6 m/s 738 mmHg 79%
    12:00 +4°C° 0.4 mm 6 m/s 737 mmHg 81%
    13:00 +4°C° 0.4 mm 6 m/s 737 mmHg 82%
    14:00 +3°C° 1.1 mm 6 m/s 737 mmHg 84%
    15:00 +3°C° 1.1 mm 6 m/s 737 mmHg 87%
    16:00 +3°C° 1.1 mm 6 m/s 736 mmHg 89%
    17:00 +3°C° 1.5 mm 6 m/s 736 mmHg 90%
    18:00 +3°C° 1.5 mm 6 m/s 736 mmHg 91%
    19:00 +3°C° 1.5 mm 5 m/s 736 mmHg 91%
    20:00 +3°C° 0.9 mm 5 m/s 736 mmHg 92%
    21:00 +5°C° 0.9 mm 5 m/s 735 mmHg 92%
    22:00 +5°C° 0.9 mm 5 m/s 735 mmHg 93%
    23:00 +5°C° 0.3 mm 5 m/s 735 mmHg 93%

    29 Octombrie, Luni

    Timp Temperatura Precipitaţii Vânt Presiune Umiditate
    00:00 +5°C° 0.3 mm 5 m/s 734 mmHg 94%
    01:00 +6°C° 0.3 mm 5 m/s 733 mmHg 94%
    02:00 +6°C° 0.2 mm 5 m/s 733 mmHg 94%
    03:00 +6°C° 0.2 mm 4 m/s 732 mmHg 94%
    04:00 +6°C° 0.2 mm 4 m/s 732 mmHg 94%
    05:00 +7°C° 0.1 mm 4 m/s 732 mmHg 92%
    06:00 +8°C° 0.1 mm 4 m/s 731 mmHg 90%
    07:00 +8°C° 0.1 mm 4 m/s 731 mmHg 89%
    08:00 +10°C° 0.1 mm 4 m/s 731 mmHg 85%
    09:00 +10°C° 0.1 mm 5 m/s 730 mmHg 82%
    10:00 +12°C° 0.1 mm 5 m/s 730 mmHg 79%
    11:00 +12°C° 0.1 mm 5 m/s 730 mmHg 80%
    12:00 +12°C° 0.1 mm 4 m/s 730 mmHg 81%
    13:00 +12°C° 0.1 mm 4 m/s 729 mmHg 83%
    14:00 +12°C° 0.5 mm 4 m/s 729 mmHg 85%
    15:00 +12°C° 0.5 mm 3 m/s 729 mmHg 87%
    16:00 +12°C° 0.5 mm 3 m/s 729 mmHg 89%
    17:00 +12°C° 0.1 mm 3 m/s 730 mmHg 89%
    18:00 +11°C° 0.1 mm 3 m/s 730 mmHg 90%
    19:00 +12°C° 0.1 mm 2 m/s 730 mmHg 91%
    20:00 +12°C° 0 mm 2 m/s 730 mmHg 91%
    21:00 +12°C° 0 mm 2 m/s 730 mmHg 90%
    22:00 +12°C° 0 mm 2 m/s 730 mmHg 90%
    23:00 +11°C° 0 mm 3 m/s 730 mmHg 90%

    30 Octombrie, Marţi

    Timp Temperatura Precipitaţii Vânt Presiune Umiditate
    00:00 +11°C° 0 mm 3 m/s 730 mmHg 91%
    01:00 +11°C° 0 mm 3 m/s 730 mmHg 91%
    02:00 +11°C° 0 mm 3 m/s 730 mmHg 91%
    03:00 +11°C° 0 mm 3 m/s 730 mmHg 91%
    04:00 +11°C° 0 mm 4 m/s 730 mmHg 91%
    05:00 +11°C° 0 mm 4 m/s 730 mmHg 90%
    06:00 +11°C° 0 mm 4 m/s 730 mmHg 88%
    07:00 +12°C° 0 mm 5 m/s 730 mmHg 87%
    08:00 +13°C° 0 mm 5 m/s 730 mmHg 83%
    09:00 +14°C° 0 mm 6 m/s 730 mmHg 78%
    10:00 +15°C° 0 mm 6 m/s 731 mmHg 74%
    11:00 +15°C° 0.1 mm 6 m/s 730 mmHg 74%
    12:00 +15°C° 0.1 mm 5 m/s 730 mmHg 75%
    13:00 +15°C° 0.1 mm 5 m/s 730 mmHg 76%
    14:00 +14°C° 0.9 mm 4 m/s 730 mmHg 82%
    15:00 +14°C° 0.9 mm 3 m/s 730 mmHg 87%
    16:00 +14°C° 0.9 mm 2 m/s 730 mmHg 92%
    17:00 +14°C° 0.4 mm 2 m/s 730 mmHg 93%
    18:00 +14°C° 0.4 mm 2 m/s 729 mmHg 94%
    19:00 +13°C° 0.4 mm 2 m/s 729 mmHg 95%
    20:00 +13°C° 1.7 mm 2 m/s 729 mmHg 95%
    21:00 +13°C° 1.7 mm 2 m/s 729 mmHg 95%
    22:00 +13°C° 1.7 mm 2 m/s 729 mmHg 96%
    23:00 +12°C° 1.5 mm 3 m/s 729 mmHg 95%
    Arată mai mult